Wind_Speed
19 20 20 21 22 22 23 23 23 24 24 24 24 25 25 26 26 26 27 27 28 28 28 28 28 27 27 27 27 27 27 27 27 26 26 26 26 25
21 22 23 24 25 25 25 26 27 27 28 28 28 29 29 30 30 31 31 32 32 33 33 32 32 32 32 32 32 32 31 31 31 31 30 30 30 30
23 24 25 26 27 27 28 28 28 29 30 31 32 33 33 34 34 34 35 35 35 35 36 36 36 36 36 36 36 36 36 36 35 35 35 34 34 34
25 26 27 28 28 29 29 30 31 32 32 33 35 36 36 37 38 38 38 38 38 38 38 38 38 39 39 39 39 39 39 40 39 39 39 39 39 38
25 26 27 28 29 30 31 32 33 34 34 35 36 38 38 39 40 40 41 41 41 41 41 41 41 41 42 42 42 42 42 43 43 43 43 43 43 42
25 26 27 28 29 31 32 33 34 36 37 38 38 39 40 41 41 41 42 43 43 44 44 44 44 44 44 45 46 46 46 45 45 46 46 46 46 47
26 27 28 29 31 33 35 36 37 39 40 41 41 42 43 43 44 45 46 46 46 47 48 48 48 48 48 47 47 48 49 49 49 49 49 48 49 49
28 30 30 31 33 35 36 38 39 40 41 43 43 45 45 46 47 47 48 49 49 50 51 51 51 51 50 50 50 50 51 51 51 51 52 52 53 53
32 33 34 34 36 38 40 41 42 43 44 45 46 47 48 49 50 50 52 53 53 52 53 52 52 52 53 52 52 52 52 53 53 54 54 54 55 55
35 36 38 39 40 42 43 43 45 46 47 47 49 50 52 53 53 54 55 55 55 55 56 56 55 54 54 54 54 54 54 54 54 55 55 56 56 57
37 38 39 40 42 44 45 46 47 49 50 51 53 54 55 56 57 58 58 58 58 58 58 59 58 57 56 56 57 57 58 58 57 57 57 58 58 58
40 41 42 43 45 47 48 50 51 52 53 55 56 57 59 60 61 61 61 61 61 61 61 61 61 61 59 58 58 58 58 58 58 58 58 58 59 60
43 43 44 46 47 49 51 53 54 56 57 58 59 61 62 63 64 64 64 64 64 63 63 64 63 63 62 60 58 58 59 58 59 59 60 60 61 61
45 46 48 50 51 53 54 56 58 59 61 62 63 64 65 65 65 65 66 65 65 65 64 64 63 63 62 61 60 59 59 59 59 59 60 60 61 62
48 50 52 54 55 57 59 60 62 63 63 64 64 64 64 64 63 63 64 63 63 62 62 61 60 60 60 60 59 58 57 57 57 57 57 57 58 59
51 54 56 57 59 60 61 62 62 62 62 61 61 61 60 60 59 59 58 57 56 55 56 56 56 56 55 55 54 53 53 52 52 53 53 53 52 53
55 56 58 59 60 60 60 60 59 59 58 57 56 55 55 54 54 53 52 52 51 50 49 49 49 49 48 48 47 47 47 47 47 47 47 47 47 47
56 57 58 58 58 58 58 57 56 55 54 53 51 51 50 49 48 48 47 46 45 44 44 43 43 42 42 41 42 41 40 40 41 41 42 42 41 42
56 56 56 56 55 55 54 53 52 51 50 49 48 47 46 45 43 42 42 40 39 38 38 38 38 38 36 35 34 36 36 35 35 36 37 38 37 37
54 54 53 53 51 50 49 48 47 46 45 44 43 42 41 39 38 37 36 35 34 33 33 34 34 33 32 31 29 29 32 32 32 32 32 33 33 33
51 50 49 48 47 45 44 44 43 42 41 41 40 38 37 35 34 33 32 31 31 31 30 30 31 30 30 28 27 26 27 29 29 29 29 29 29 29
46 45 44 43 43 42 41 40 39 39 38 37 36 35 34 33 32 31 30 29 28 28 27 27 28 28 27 26 25 24 24 25 26 27 27 27 27 27
42 41 41 40 39 38 38 37 36 36 35 35 34 33 32 31 30 29 27 27 26 26 26 25 25 25 25 25 24 23 23 23 23 23 25 26 27 26
Wind_Direction
270 271 272 274 277 279 281 283 284 284 284 283 284 285 285 285 286 286 286 287 288 288 287 287 286 285 284 283 282 281 280 279 278 277 276 274 274 273
271 272 273 275 276 278 280 281 283 284 284 284 284 284 284 285 285 285 285 285 285 285 284 284 284 283 283 282 281 280 278 277 276 276 275 274 273 272
272 273 275 276 277 278 279 280 281 283 284 285 285 285 285 285 285 284 284 284 284 284 283 282 281 281 281 281 280 278 277 275 275 274 274 273 272 271
273 274 276 277 278 279 280 280 281 282 284 285 286 286 285 285 285 285 285 284 283 282 282 281 281 281 280 279 278 277 276 275 274 273 272 272 271 271
276 277 278 278 279 281 281 282 282 283 284 285 286 287 286 285 284 284 283 283 283 282 281 280 280 280 278 278 277 276 275 274 273 272 272 271 270 270
278 279 279 280 281 282 283 283 283 284 285 285 285 285 285 285 285 283 282 282 283 283 283 282 280 281 280 278 277 275 274 273 272 272 271 270 269 269
280 282 283 283 284 284 284 284 284 284 285 286 285 285 285 285 284 283 283 282 282 282 282 282 281 280 279 279 277 274 274 273 272 272 271 270 270 269
281 283 285 286 286 286 287 287 286 286 286 286 285 285 285 285 284 283 283 282 282 282 281 281 281 280 280 278 277 275 274 273 272 272 271 270 270 269
285 287 287 287 286 287 288 288 287 287 287 287 286 286 285 285 284 284 283 283 283 282 281 281 280 279 278 277 276 274 273 272 272 272 271 270 270 269
286 287 288 288 288 289 289 289 289 289 289 288 288 287 287 286 285 285 284 284 283 282 282 281 279 279 278 277 275 274 274 273 272 271 271 270 270 269
288 289 290 290 290 290 290 290 290 290 290 289 289 289 288 287 287 286 285 284 283 282 282 281 280 278 277 276 275 274 274 273 273 272 271 270 270 269
290 291 292 291 291 291 291 291 291 290 290 290 289 288 288 287 287 286 285 284 284 283 282 281 280 279 278 277 276 274 274 273 273 272 271 271 270 270
292 292 292 292 292 292 291 291 291 290 290 289 289 288 287 286 286 285 284 284 283 282 281 280 279 279 278 277 275 274 274 273 273 272 272 271 270 270
293 294 294 294 294 293 293 292 292 291 291 290 289 288 287 286 285 284 283 282 282 281 280 280 279 278 277 276 275 274 273 273 272 272 272 271 271 271
295 295 295 295 295 294 294 294 293 293 292 291 290 289 287 286 285 284 283 282 282 281 281 280 279 278 278 277 276 274 273 272 272 273 273 272 272 271
295 295 295 296 295 295 295 295 294 294 292 291 290 289 287 286 285 285 284 283 283 282 282 282 281 281 280 279 278 276 274 274 273 273 273 273 272 272
296 296 297 297 297 296 296 296 295 294 293 291 291 289 289 288 287 286 285 284 284 283 283 282 282 283 282 281 280 278 277 275 274 274 273 273 272 272
298 299 299 299 298 298 297 296 296 295 294 293 292 292 291 290 290 289 288 287 286 285 285 284 284 284 284 284 283 281 279 278 277 276 276 275 273 273
300 300 300 300 299 299 298 297 296 296 295 294 294 294 294 292 292 291 291 289 288 287 287 287 286 286 284 284 284 284 282 280 279 279 278 277 277 275
301 301 301 301 300 300 299 298 298 298 297 297 296 296 295 294 294 293 292 291 290 289 289 289 289 289 288 287 285 283 283 283 283 283 282 281 280 279
303 303 303 302 301 301 300 299 299 299 298 298 297 296 296 295 295 294 293 292 291 291 290 290 291 291 292 291 290 286 284 286 287 288 287 285 284 282
305 305 305 304 303 303 302 301 301 300 300 298 297 296 296 295 295 294 293 293 292 293 293 291 291 292 292 293 293 289 287 287 290 292 293 291 289 287
308 308 307 307 306 305 304 304 303 303 302 300 298 297 296 296 295 295 294 293 293 294 293 293 293 293 294 295 295 292 290 290 290 292 294 294 295 295
Height
5870 5870 5870 5870 5870 5870 5870 5870 5870 5870 5869 5869 5869 5868 5868 5867 5867 5866 5866 5865 5864 5864 5863 5862 5862 5861 5860 5860 5860 5859 5859 5859 5858 5858 5858 5858 5858 5858
5866 5866 5866 5866 5865 5865 5864 5864 5864 5863 5863 5862 5862 5862 5861 5860 5860 5859 5858 5858 5857 5856 5855 5855 5854 5854 5853 5852 5852 5852 5851 5851 5851 5851 5850 5850 5850 5850
5860 5860 5860 5860 5860 5859 5859 5858 5858 5857 5856 5855 5854 5854 5854 5852 5852 5851 5850 5850 5849 5848 5846 5846 5845 5845 5844 5843 5843 5842 5842 5842 5841 5841 5841 5841 5842 5842
5855 5855 5854 5854 5853 5853 5852 5852 5851 5850 5850 5849 5847 5846 5845 5844 5843 5842 5841 5840 5839 5838 5837 5836 5835 5834 5833 5833 5832 5832 5831 5831 5831 5831 5831 5831 5831 5831
5849 5848 5848 5847 5847 5846 5845 5844 5843 5842 5841 5840 5839 5837 5835 5834 5833 5832 5830 5829 5828 5826 5826 5825 5824 5823 5822 5821 5821 5820 5820 5819 5819 5819 5819 5819 5819 5819
5842 5841 5841 5840 5839 5838 5837 5836 5835 5834 5832 5831 5829 5827 5825 5823 5822 5821 5819 5818 5816 5814 5813 5813 5812 5811 5810 5809 5808 5807 5807 5806 5806 5806 5805 5806 5806 5806
5835 5834 5834 5833 5832 5830 5829 5828 5826 5824 5822 5820 5819 5817 5815 5813 5811 5809 5807 5806 5804 5802 5801 5800 5798 5798 5797 5796 5794 5793 5792 5792 5792 5792 5791 5791 5791 5792
5828 5827 5826 5825 5823 5821 5819 5817 5816 5814 5812 5809 5807 5805 5803 5801 5798 5796 5794 5792 5791 5790 5786 5786 5783 5782 5781 5780 5779 5778 5777 5777 5776 5776 5776 5776 5776 5776
5820 5818 5817 5815 5813 5811 5809 5807 5804 5802 5800 5798 5795 5793 5790 5787 5785 5782 5780 5777 5775 5773 5771 5770 5768 5766 5765 5764 5763 5762 5761 5760 5760 5759 5759 5759 5759 5759
5811 5809 5807 5805 5803 5800 5797 5795 5792 5790 5787 5784 5782 5778 5775 5772 5769 5767 5764 5762 5760 5756 5753 5753 5752 5750 5748 5747 5745 5744 5743 5742 5742 5741 5741 5741 5741 5741
5801 5799 5797 5794 5791 5788 5785 5783 5780 5776 5773 5770 5767 5763 5760 5756 5753 5750 5747 5745 5743 5740 5736 5734 5733 5732 5731 5730 5727 5725 5724 5723 5723 5723 5722 5722 5721 5722
5790 5788 5786 5782 5779 5775 5773 5769 5766 5762 5758 5755 5751 5747 5743 5739 5735 5732 5729 5726 5723 5721 5717 5714 5712 5710 5711 5711 5708 5706 5704 5703 5703 5703 5702 5702 5701 5702
5779 5777 5774 5770 5767 5763 5759 5755 5752 5747 5743 5739 5734 5730 5725 5721 5717 5713 5709 5706 5703 5700 5696 5693 5692 5689 5688 5689 5689 5686 5684 5683 5682 5682 5681 5681 5681 5681
5767 5763 5760 5756 5753 5749 5744 5740 5735 5731 5726 5721 5716 5711 5706 5701 5697 5692 5688 5685 5681 5678 5675 5671 5670 5668 5666 5666 5667 5666 5664 5662 5661 5661 5660 5660 5659 5659
5754 5750 5746 5742 5737 5732 5728 5722 5717 5712 5706 5701 5695 5690 5685 5680 5676 5672 5668 5664 5661 5657 5654 5650 5648 5647 5645 5644 5645 5644 5643 5642 5640 5639 5639 5639 5639 5638
5741 5736 5731 5726 5721 5715 5709 5704 5698 5692 5686 5681 5675 5670 5665 5660 5656 5652 5648 5645 5642 5639 5635 5631 5629 5627 5626 5624 5623 5623 5622 5622 5621 5620 5619 5620 5619 5618
5726 5721 5715 5709 5703 5697 5691 5685 5679 5673 5667 5662 5656 5651 5647 5642 5638 5634 5630 5627 5624 5622 5619 5615 5613 5610 5608 5607 5606 5605 5604 5604 5603 5602 5602 5602 5602 5601
5710 5704 5698 5691 5685 5679 5673 5667 5660 5655 5649 5644 5639 5635 5630 5626 5622 5618 5615 5612 5609 5606 5604 5601 5599 5597 5595 5593 5591 5590 5589 5588 5587 5587 5586 5586 5587 5586
5693 5687 5680 5674 5668 5662 5656 5650 5644 5639 5634 5629 5624 5620 5616 5612 5608 5605 5602 5599 5596 5594 5591 5588 5586 5584 5583 5583 5580 5576 5575 5574 5574 5574 5573 5572 5572 5572
5677 5671 5664 5658 5652 5646 5640 5635 5629 5624 5620 5615 5611 5607 5603 5599 5596 5593 5590 5587 5585 5583 5581 5578 5575 5573 5571 5571 5570 5568 5564 5563 5562 5562 5561 5559 5559 5558
5661 5655 5649 5643 5637 5632 5626 5621 5616 5612 5608 5603 5599 5595 5592 5588 5585 5582 5580 5578 5575 5573 5571 5569 5566 5564 5562 5560 5560 5559 5556 5554 5552 5551 5549 5548 5547 5546
5647 5641 5635 5630 5624 5619 5614 5609 5605 5600 5596 5592 5588 5585 5581 5578 5576 5573 5571 5569 5567 5565 5563 5561 5558 5556 5554 5552 5551 5550 5548 5546 5544 5542 5540 5538 5536 5535
5635 5629 5623 5618 5613 5608 5603 5599 5594 5590 5586 5582 5578 5575 5572 5569 5567 5564 5562 5560 5559 5557 5555 5553 5551 5548 5546 5544 5543 5541 5540 5539 5537 5535 5533 5530 5527 5525